Location: hvezdarna zebrak
(49.8744°N, 13.8989°E)
Time: 03:08:13
(UTC+01:00)

ACS3 Solar Sail - Visible Passes

Search period start: 13 March 2026 00:00
Search period end: 23 March 2026 00:00
Orbit: 884 x 975 km, 97.2° (Epoch: 12 March)

Date Brightness Start Highest point End Pass type
(mag) Time Alt. Az. Time Alt. Az. Time Alt. Az.
13 Mar 4.2 00:27:02 10° NE 00:27:53 13° NE 00:27:53 13° NE visible
13 Mar 3.0 02:08:28 10° N 02:11:33 34° N 02:11:33 34° N visible
13 Mar 3.4 03:52:27 10° NNW 03:55:15 16° NW 03:55:15 16° NW visible
14 Mar 4.0 00:37:55 10° NE 00:39:24 16° NE 00:39:24 16° NE visible
14 Mar 2.9 02:19:46 10° N 02:23:04 36° N 02:23:04 36° N visible
14 Mar 3.5 04:04:11 10° NNW 04:06:45 14° NW 04:06:45 14° NW visible
15 Mar 3.8 00:48:52 10° NNE 00:50:52 19° NE 00:50:52 19° NE visible
15 Mar 2.8 02:31:02 10° N 02:34:31 36° NNW 02:34:31 36° NNW visible
15 Mar 3.6 04:16:08 10° NNW 04:17:57 12° NW 04:18:12 11° NW visible
16 Mar 3.6 00:59:50 10° NNE 01:02:16 23° NE 01:02:16 23° NE visible
16 Mar 2.7 02:42:18 10° N 02:45:56 34° NNW 02:45:56 34° NNW visible
17 Mar 3.4 01:10:49 10° NNE 01:13:37 27° NE 01:13:37 27° NE visible
17 Mar 2.8 02:53:31 10° N 02:57:17 32° NW 02:57:17 32° NW visible
18 Mar 3.2 01:21:46 10° NNE 01:24:56 32° NE 01:24:56 32° NE visible
18 Mar 2.9 03:04:44 10° N 03:08:36 29° NW 03:08:36 29° NW visible
19 Mar 2.9 01:32:44 10° NNE 01:36:12 37° NNE 01:36:12 37° NNE visible
19 Mar 3.0 03:15:56 10° N 03:19:52 25° NW 03:19:52 25° NW visible
20 Mar 4.2 00:03:11 10° NE 00:03:46 11° ENE 00:03:46 11° ENE visible
20 Mar 2.7 01:43:40 10° NNE 01:47:25 42° NNE 01:47:25 42° NNE visible
20 Mar 3.1 03:27:08 10° N 03:31:04 22° NW 03:31:04 22° NW visible
21 Mar 4.0 00:13:27 10° NE 00:14:56 14° ENE 00:14:56 14° ENE visible
21 Mar 2.5 01:54:35 10° NNE 01:58:35 47° NNE 01:58:35 47° NNE visible
21 Mar 3.2 03:38:19 10° NNW 03:42:12 19° NW 03:42:14 19° WNW visible
22 Mar 3.8 00:23:53 10° NE 00:26:03 17° ENE 00:26:03 17° ENE visible
22 Mar 2.3 02:05:29 10° N 02:09:42 49° N 02:09:42 49° N visible
22 Mar 3.4 03:49:33 10° NNW 03:52:54 16° NW 03:53:21 16° WNW visible
